SCP
0 0 0 0 0 0 0 0 0 0 0 0 0 0 0 0 0 0 0 0 0 0 0 0 0 0 0 0 0 0 0 0 0 0 0 0 0 0 0 0 0 0 0
0 0 0 0 0 0 0 0 0 0 0 0 0 0 0 0 0 0 0 0 0 0 0 0 0 0 0 0 0 0 0 0 0 0 0 0 0 0 0 0 0 0 0
1 1 0 0 0 0 0 0 0 0 0 0 0 0 0 0 0 0 0 0 0 0 0 0 0 0 0 0 1 1 1 1 0 0 0 0 0 0 0 0 0 0 0
1 1 1 1 1 1 1 1 0 0 0 0 0 0 0 0 0 0 0 0 0 0 0 0 0 0 0 0 1 1 1 1 1 0 0 0 0 0 0 0 0 0 0
1 1 1 1 1 1 1 1 1 1 1 1 0 0 0 0 0 0 0 0 0 0 0 0 0 0 0 0 1 1 1 1 1 1 0 0 0 0 0 0 0 0 0
2 2 1 1 1 1 1 1 1 1 1 1 0 0 0 0 0 0 0 0 0 0 0 0 0 0 0 0 0 1 1 1 1 1 1 0 0 0 0 0 0 0 0
2 2 2 2 2 2 1 1 1 1 1 1 1 0 0 0 0 0 0 0 0 0 0 0 0 0 0 0 0 1 1 1 1 1 1 0 0 0 0 0 0 0 0
2 2 2 2 2 2 2 1 1 1 1 1 1 0 0 0 0 0 0 0 0 0 0 0 0 0 0 0 0 0 1 1 1 1 1 0 0 0 0 0 0 0 0
3 2 2 2 2 2 2 2 1 1 1 1 1 1 1 0 0 0 0 0 0 0 0 0 0 0 0 0 0 0 0 0 0 0 0 0 0 0 0 0 0 0 0
3 2 2 2 2 2 2 2 1 1 1 1 1 1 1 1 0 0 0 0 0 0 0 0 0 0 0 0 0 0 0 0 0 0 0 0 0 0 0 0 0 0 0
3 2 2 2 2 2 2 2 1 1 1 1 1 1 1 1 0 0 0 0 0 0 0 0 0 0 0 0 0 0 0 0 0 0 0 0 0 0 0 0 0 0 0
3 3 2 2 2 2 2 1 1 1 1 1 1 1 1 1 0 0 0 0 0 0 0 0 0 0 0 0 0 0 0 0 0 0 0 0 0 0 0 0 0 0 0
3 3 2 2 2 2 1 1 1 1 1 1 1 0 0 0 0 0 0 0 0 0 0 0 0 0 0 0 0 0 0 0 0 0 0 0 0 0 0 0 0 0 0
3 2 2 2 2 1 1 1 1 1 0 0 0 0 0 0 0 0 0 0 0 0 0 0 0 0 0 0 0 0 0 0 0 0 0 0 0 0 0 0 0 0 0
2 2 2 1 1 1 1 1 0 0 0 0 0 0 0 0 0 0 0 0 0 0 0 0 0 0 0 0 0 0 0 0 0 0 0 0 0 0 0 0 0 0 0
1 1 1 1 1 1 0 0 0 0 0 0 0 0 0 0 0 0 0 0 0 0 0 0 0 0 0 0 0 0 0 0 0 0 0 0 0 0 0 0 0 0 0
1 0 0 0 0 0 0 0 0 0 0 0 0 0 0 0 0 0 0 0 0 0 0 0 0 0 0 0 0 0 0 0 0 0 0 0 0 -0 0 0 0 0 0
0 0 0 0 0 0 0 0 0 0 0 0 0 0 0 0 0 0 0 0 0 0 0 0 0 0 0 0 0 0 0 0 0 0 0 0 0 0 0 0 0 0 0
0 0 0 0 0 0 0 0 0 0 0 0 0 0 0 0 0 0 0 0 0 0 0 0 0 0 0 0 0 0 0 0 0 0 0 0 0 0 0 0 0 0 0
0 0 0 0 0 0 0 0 0 0 0 0 0 0 0 0 0 0 0 0 0 0 0 0 0 0 0 0 0 0 0 0 0 0 0 0 0 0 0 0 0 0 0
0 0 0 0 0 0 0 0 0 0 0 0 0 0 0 0 0 0 0 0 0 0 0 0 0 0 0 0 0 0 0 0 0 0 0 0 0 0 0 0 0 0 0
0 0 0 0 0 0 0 0 0 0 0 0 0 0 0 0 0 0 0 0 0 0 0 0 0 0 0 0 0 0 0 0 0 0 0 0 0 0 0 0 0 0 0
0 0 0 0 0 0 0 0 0 0 0 0 0 0 0 0 0 0 0 0 0 0 0 0 0 0 0 0 0 0 0 0 0 0 0 0 0 0 0 0 0 0 0
0 0 0 0 0 0 0 0 0 0 0 0 0 0 0 0 0 0 0 0 0 0 0 0 0 0 0 0 0 0 0 0 0 0 0 0 0 0 0 0 0 0 0
0 0 0 0 0 0 0 0 0 0 0 0 0 0 0 0 0 0 0 0 0 0 0 0 0 0 0 0 0 0 0 0 0 0 0 0 0 0 0 0 0 0 0
0 0 0 0 0 0 0 0 0 0 0 0 0 0 0 0 0 0 0 0 0 0 0 0 0 0 0 0 0 0 0 0 0 0 0 0 0 0 0 0 0 0 0
Wind_Speed
7 7 6 5 7 6 6 6 6 6 7 8 7 7 8 7 8 7 4 8 10 11 12 12 12 12 11 11 11 11 11 12 13 13 14 15 16 16 16 17 17 17 17
7 7 7 7 7 7 6 6 7 6 7 6 7 7 8 9 7 7 8 6 12 12 12 13 12 12 12 12 12 11 11 12 12 12 13 14 14 15 15 16 17 18 18
9 8 8 7 7 7 7 7 7 6 7 7 7 8 8 8 8 8 9 7 7 11 14 13 12 12 12 12 13 12 12 12 12 12 13 13 14 14 15 16 17 18 18
10 9 9 8 7 7 7 6 7 6 6 6 7 7 7 6 8 8 9 8 7 7 8 12 11 11 12 13 14 13 13 13 13 13 13 14 14 14 15 16 17 17 18
11 10 9 7 8 7 6 7 6 6 6 6 7 7 8 7 7 8 8 9 7 7 7 5 10 11 12 12 13 14 14 14 14 14 14 15 15 14 15 16 17 18 19
11 10 9 10 10 7 7 7 7 6 6 7 8 8 8 9 8 7 8 7 5 6 6 6 5 8 12 11 12 13 14 14 14 15 15 15 15 14 14 15 16 17 19
11 10 9 9 9 8 8 8 7 7 7 6 7 8 8 9 7 6 6 5 5 4 4 5 6 5 4 10 11 11 13 14 14 14 14 14 14 14 14 15 15 17 19
12 10 11 9 8 7 9 8 7 6 6 5 5 6 6 6 5 5 4 5 5 5 5 6 4 5 6 5 4 9 10 11 12 13 13 12 13 13 14 15 15 16 18
11 11 10 9 8 8 7 7 7 7 6 5 5 5 5 5 5 4 4 5 4 5 6 5 6 6 6 6 5 7 8 8 9 11 11 11 11 12 13 15 16 17 19
10 9 9 8 8 6 6 6 6 6 6 6 4 5 6 6 6 6 5 4 4 5 6 6 7 6 6 6 3 4 5 7 8 9 10 11 12 12 13 15 17 18 20
9 9 8 7 7 6 7 7 6 6 5 6 5 4 5 5 7 6 7 6 5 5 4 6 5 5 4 5 4 1 3 6 7 9 10 11 13 14 14 15 17 19 20
7 9 8 7 7 6 7 7 7 8 5 5 5 4 5 4 4 5 6 7 6 5 5 5 5 4 4 4 3 2 4 6 7 8 10 11 13 13 14 15 17 19 20
6 8 8 7 6 6 6 6 6 5 5 5 5 4 3 4 4 4 6 7 7 6 4 4 2 4 3 4 3 0 6 7 7 8 9 10 11 12 13 15 17 18 20
6 6 7 7 7 6 5 5 5 5 4 4 4 3 3 2 3 3 4 6 7 7 5 4 4 3 4 5 3 5 6 6 6 6 7 9 10 11 12 13 14 15 17
5 8 7 6 6 6 6 6 4 4 4 4 3 3 2 0 1 2 3 4 6 8 7 4 4 5 5 6 4 7 7 3 6 6 6 8 9 10 11 12 12 13 14
4 7 8 7 6 6 6 5 5 4 4 3 1 2 0 1 1 2 3 3 4 6 7 7 6 7 8 8 5 7 6 4 7 6 6 7 8 9 10 10 10 10 12
6 7 7 6 6 6 5 5 5 5 5 4 3 3 3 3 2 2 2 3 3 4 7 7 7 7 8 9 8 7 5 5 5 7 4 5 7 8 9 9 8 8 11
7 7 6 6 5 5 5 6 6 6 6 5 5 4 4 3 2 3 3 3 3 3 6 8 8 7 8 8 8 7 5 4 4 6 4 3 5 6 7 7 6 7 10
7 6 6 6 5 5 6 6 7 7 7 7 6 6 5 5 4 4 4 4 4 4 4 6 6 6 6 7 8 7 6 4 5 4 6 5 2 4 5 4 3 4 9
7 6 5 5 5 6 7 7 7 8 8 8 7 6 6 6 6 5 4 4 5 6 4 5 5 6 6 8 7 7 6 4 5 3 2 1 2 1 2 2 1 3 7
6 6 6 6 6 6 6 7 8 8 8 8 7 7 8 7 6 6 6 7 7 7 6 6 6 6 7 8 8 7 8 7 5 3 3 3 3 3 2 2 2 4 7
6 6 6 6 6 6 7 5 5 9 8 8 7 6 6 5 3 2 1 3 5 7 8 8 7 8 8 9 9 8 8 7 5 3 3 3 2 3 3 2 5 6 7
6 6 6 6 7 7 5 5 4 6 8 7 6 4 5 7 6 5 1 5 3 2 2 7 8 9 9 10 11 11 9 8 6 4 3 3 2 3 3 2 10 9 9
6 6 6 7 7 7 5 5 3 7 7 7 6 6 6 7 8 9 6 6 5 5 4 6 7 7 8 9 10 10 9 8 4 3 3 2 1 2 2 3 9 11 11
7 6 7 7 7 7 4 3 3 6 6 7 6 7 6 7 9 11 6 6 6 5 2 2 4 6 8 8 9 9 10 9 7 4 4 3 2 2 2 2 5 12 12
7 7 7 7 8 7 4 1 5 4 6 6 6 7 10 8 8 11 7 7 7 8 8 6 3 4 5 4 4 7 9 9 8 6 5 4 3 2 1 1 2 5 7
Wind_Direction
229 231 234 242 249 245 235 236 251 262 265 258 258 262 270 268 265 264 252 203 223 242 254 257 253 247 244 241 239 236 235 235 232 229 230 232 234 233 229 225 220 215 211
235 236 234 232 245 250 256 260 256 258 261 267 269 271 273 276 271 271 272 235 210 225 242 251 253 249 244 238 234 232 231 231 229 227 228 231 233 233 230 226 222 217 212
230 234 242 237 239 243 243 250 259 260 260 265 264 268 267 267 275 278 278 278 261 221 220 235 246 249 246 240 234 230 228 227 226 226 227 229 231 232 231 228 224 218 213
234 235 242 241 239 244 244 245 255 261 265 271 274 276 274 266 264 271 270 267 272 277 232 216 233 244 246 242 236 231 226 224 224 225 227 228 230 231 230 228 225 219 213
231 233 242 246 245 245 248 253 247 258 266 271 272 263 269 272 274 269 276 276 271 268 272 216 215 234 243 244 239 234 228 225 224 226 228 230 231 232 231 229 226 220 213
229 233 237 240 245 244 243 247 256 256 265 269 277 284 279 276 271 273 273 268 261 264 272 287 258 225 221 235 240 238 235 230 227 227 229 231 233 232 231 229 226 222 214
234 233 242 236 236 240 243 243 244 249 253 262 270 274 272 262 263 267 264 281 276 273 280 285 279 294 243 216 227 238 240 239 232 230 231 232 234 235 233 231 228 223 216
239 237 239 241 238 240 239 237 239 252 254 246 264 282 280 268 222 244 261 257 275 279 276 272 284 270 276 266 210 224 238 241 239 236 236 237 238 239 238 236 231 224 216
238 242 244 243 242 239 237 232 227 234 242 241 236 256 280 291 312 260 254 269 276 289 284 290 275 274 268 269 258 217 228 245 248 246 245 243 244 244 243 242 237 228 216
237 236 237 236 237 235 231 232 225 229 236 245 233 237 258 284 282 288 266 254 259 270 283 287 286 271 261 263 260 263 226 243 249 253 255 257 256 255 251 248 243 233 219
230 225 221 219 222 219 218 220 216 226 229 241 244 241 242 245 247 269 287 299 296 286 291 287 286 287 283 274 273 293 214 242 247 253 259 264 265 262 259 254 247 238 224
224 221 213 208 212 212 208 206 206 214 225 239 250 247 253 259 262 265 281 291 296 299 308 306 294 296 294 293 294 24 265 249 246 251 259 264 267 267 266 263 252 241 228
220 213 204 192 193 203 199 193 200 208 212 220 236 246 254 264 280 283 284 297 302 300 297 283 314 307 304 307 302 277 258 238 242 251 261 268 273 275 274 268 257 244 229
214 199 192 179 171 176 181 184 189 194 197 211 225 246 255 262 286 294 299 305 302 300 291 313 315 308 333 309 348 280 271 209 225 246 264 274 280 283 279 271 260 246 229
192 176 167 160 159 165 167 183 182 182 182 203 195 196 245 280 279 294 289 295 303 306 312 322 326 330 320 314 312 293 291 204 213 245 269 283 291 291 284 272 259 242 224
160 156 147 144 153 152 156 178 167 154 161 145 117 80 1 0 350 317 316 310 298 301 306 319 319 325 332 312 299 294 290 187 214 232 263 288 297 298 295 280 259 238 216
109 115 117 124 135 142 151 158 142 144 140 124 120 106 82 30 2 340 328 315 315 312 303 313 321 329 323 315 316 304 287 260 221 196 241 289 305 311 310 294 265 229 203
97 101 108 116 123 130 141 143 136 127 121 112 99 91 79 72 46 6 344 340 334 315 302 313 320 326 327 328 324 311 304 278 266 162 199 277 309 319 318 307 271 222 193
89 91 103 110 118 127 129 122 119 114 105 98 92 86 74 59 40 33 356 358 341 333 320 308 321 337 337 350 335 327 319 309 281 188 191 216 274 324 327 322 285 206 182
93 93 97 110 121 121 117 115 113 106 101 96 88 81 68 55 37 14 8 2 349 331 332 323 343 348 354 354 344 341 333 324 298 276 236 217 178 254 327 351 75 162 168
100 105 110 113 117 118 109 112 117 113 110 106 98 85 71 59 39 6 4 1 352 342 344 345 351 358 3 354 353 341 335 329 313 293 272 241 219 233 204 170 148 141 148
105 110 112 115 112 92 67 64 104 114 112 107 100 98 107 81 80 147 72 8 360 353 354 343 358 360 358 353 345 334 339 338 331 335 299 274 246 245 233 198 150 148 150
123 123 123 116 102 89 81 79 74 114 108 98 93 76 59 58 17 21 108 185 151 154 306 323 357 357 350 353 337 334 341 333 325 331 308 278 247 252 244 174 157 165 165
135 131 127 118 110 101 102 118 122 118 108 101 89 75 63 50 27 351 3 23 30 42 18 0 360 350 355 343 330 320 320 317 320 16 0 312 280 255 245 199 174 178 179
137 137 132 126 118 113 113 160 223 131 119 106 88 64 48 55 20 343 360 19 17 15 149 206 268 282 284 288 307 328 339 335 340 2 22 341 322 275 234 217 188 187 187
145 141 131 128 122 116 101 337 283 148 129 127 118 107 70 43 19 357 5 14 9 357 342 334 299 284 302 317 300 340 344 340 341 343 10 347 338 329 298 217 190 185 195